Tracking 27380 objects as of 5-Jun-2023
HD Live streaming from Space Station
objects crossing your sky now

DELTA 1 DEB

Track DELTA 1 DEB now!
10-day predictions


NORAD ID: 9976
Int'l Code: 1973-086GF
Perigee: 1,498.5 km
Apogee: 1,570.1 km
Inclination: 102.4 °
Period: 116.6 minutes
Semi major axis: 7905 km
RCS: 0.0352 m2 (small)
Launch date: November 6, 1973
Source: United States (US)
Launch site: AIR FORCE WESTERN TEST RANGE (AFWTR)

Note: This is SATELLITE DEBRIS
Your satellite tracking list
Your tracking list is empty




NASA's NSSDC Master Catalog

Two Line Element Set (TLE):
1 09976U 73086GF  23153.56456870  .00000064  00000-0  86900-3 0  9996
2 09976 102.3768 151.3360 0045306  84.5699  36.5309 12.35173670159105
Source of the keplerian elements: AFSPC